Back to catalog

SAMSON MASS SIMULATOR

AliveScienceSSO
NORAD 43891·PAYLOAD·🇷🇺 Russia
This satellite name has not been confirmed by official sources yet.

Launched Dec 27, 2018 from Vostochny Cosmodrome

Loading…

Next Passes (next 24 hours)

TLE

FreshSource: Space-Track

Epoch: Sep 14, 2026, 14:36 UTC

1 43891U 18111R   26257.60859025  .00003140  00000-0  85429-4 0  9994
2 43891  97.0045  89.2379 0017796 309.1226  50.8437 15.38084799430179

Track SAMSON MASS SIMULATOR in real time with AllMySat

Download on the App Store